����������;��������(kVARh)
2017-08-07 00:00;9,65
2017-08-07 00:15;11,05
2017-08-07 00:30;13,2
2017-08-07 00:45;13,5
2017-08-07 01:00;6,85
2017-08-07 01:15;8,05
2017-08-07 01:30;8,3
2017-08-07 01:45;10,3
2017-08-07 02:00;10,55
2017-08-07 02:15;10
2017-08-07 02:30;8,05
2017-08-07 02:45;8,35
2017-08-07 03:00;10
2017-08-07 03:15;8,3
2017-08-07 03:30;11,75
2017-08-07 03:45;9,95
2017-08-07 04:00;9,55
2017-08-07 04:15;11,3
2017-08-07 04:30;9,75
2017-08-07 04:45;12,25
2017-08-07 05:00;12,5
2017-08-07 05:15;12,2
2017-08-07 05:30;10,9
2017-08-07 05:45;11,45
2017-08-07 06:00;11,1
2017-08-07 06:15;11,2
2017-08-07 06:30;10,65
2017-08-07 06:45;11,1
2017-08-07 07:00;3,8
2017-08-07 07:15;6,5
2017-08-07 07:30;6,4
2017-08-07 07:45;4,2
2017-08-07 08:00;7,15
2017-08-07 08:15;4,8
2017-08-07 08:30;2,45
2017-08-07 08:45;2,6
2017-08-07 09:00;1,45
2017-08-07 09:15;1,25
2017-08-07 09:30;0,8
2017-08-07 09:45;0,9
2017-08-07 10:00;1,75
2017-08-07 10:15;1,4
2017-08-07 10:30;1,5
2017-08-07 10:45;0,45
2017-08-07 11:00;2,25
2017-08-07 11:15;1,95
2017-08-07 11:30;1,1
2017-08-07 11:45;3,7
2017-08-07 12:00;4,35
2017-08-07 12:15;2,65
2017-08-07 12:30;1,3
2017-08-07 12:45;1,95
2017-08-07 13:00;6,7
2017-08-07 13:15;6,9
2017-08-07 13:30;7,2
2017-08-07 13:45;8,9
2017-08-07 14:00;6,75
2017-08-07 14:15;8,3
2017-08-07 14:30;10,25
2017-08-07 14:45;6,75
2017-08-07 15:00;9
2017-08-07 15:15;8,8
2017-08-07 15:30;9,2
2017-08-07 15:45;9,95
2017-08-07 16:00;11,55
2017-08-07 16:15;11,3
2017-08-07 16:30;13,15
2017-08-07 16:45;13,25
2017-08-07 17:00;12,8
2017-08-07 17:15;14,1
2017-08-07 17:30;12,8
2017-08-07 17:45;13,8
2017-08-07 18:00;12,65
2017-08-07 18:15;15,1
2017-08-07 18:30;12,95
2017-08-07 18:45;13,7
2017-08-07 19:00;11,9
2017-08-07 19:15;10,25
2017-08-07 19:30;10,65
2017-08-07 19:45;10
2017-08-07 20:00;9,15
2017-08-07 20:15;9,2
2017-08-07 20:30;8,45
2017-08-07 20:45;8,65
2017-08-07 21:00;5,05
2017-08-07 21:15;6,7
2017-08-07 21:30;9,45
2017-08-07 21:45;8,35
2017-08-07 22:00;8,95
2017-08-07 22:15;14,35
2017-08-07 22:30;12,45
2017-08-07 22:45;12,4
2017-08-07 23:00;15,35
2017-08-07 23:15;11,65
2017-08-07 23:30;12,55
2017-08-07 23:45;10,4
2017-08-08 00:00;12,6
2017-08-08 00:15;11,2
2017-08-08 00:30;7,65
2017-08-08 00:45;7,95
2017-08-08 01:00;8,1
2017-08-08 01:15;7,65
2017-08-08 01:30;6,4
2017-08-08 01:45;8,55
2017-08-08 02:00;7,8
2017-08-08 02:15;10,1
2017-08-08 02:30;9,8
2017-08-08 02:45;8,35
2017-08-08 03:00;10,4
2017-08-08 03:15;10,45
2017-08-08 03:30;9,65
2017-08-08 03:45;10,05
2017-08-08 04:00;10,85
2017-08-08 04:15;10,85
2017-08-08 04:30;12,7
2017-08-08 04:45;12,25
2017-08-08 05:00;14,75
2017-08-08 05:15;13,75
2017-08-08 05:30;12,55
2017-08-08 05:45;12,15
2017-08-08 06:00;13,6
2017-08-08 06:15;7,55
2017-08-08 06:30;7,6
2017-08-08 06:45;6
2017-08-08 07:00;6,85
2017-08-08 07:15;7,25
2017-08-08 07:30;6,4
2017-08-08 07:45;7,6
2017-08-08 08:00;4,8
2017-08-08 08:15;4,15
2017-08-08 08:30;3,05
2017-08-08 08:45;3,8
2017-08-08 09:00;3,7
2017-08-08 09:15;3,3
2017-08-08 09:30;2,7
2017-08-08 09:45;1,4
2017-08-08 10:00;1,6
2017-08-08 10:15;1,9
2017-08-08 10:30;2,1
2017-08-08 10:45;2,2
2017-08-08 11:00;2,3
2017-08-08 11:15;6,6
2017-08-08 11:30;7,05
2017-08-08 11:45;7,6
2017-08-08 12:00;6,45
2017-08-08 12:15;6,05
2017-08-08 12:30;7,85
2017-08-08 12:45;7,7
2017-08-08 13:00;6,65
2017-08-08 13:15;11,15
2017-08-08 13:30;9,25
2017-08-08 13:45;8,35
2017-08-08 14:00;11,8
2017-08-08 14:15;11,5
2017-08-08 14:30;10,2
2017-08-08 14:45;10,85
2017-08-08 15:00;12,95
2017-08-08 15:15;11,1
2017-08-08 15:30;12,15
2017-08-08 15:45;13,7
2017-08-08 16:00;10,85
2017-08-08 16:15;14,05
2017-08-08 16:30;12,65
2017-08-08 16:45;12
2017-08-08 17:00;13,3
2017-08-08 17:15;11,8
2017-08-08 17:30;12,65
2017-08-08 17:45;10,9
2017-08-08 18:00;11
2017-08-08 18:15;7,75
2017-08-08 18:30;9,4
2017-08-08 18:45;7,9
2017-08-08 19:00;10,55
2017-08-08 19:15;6,15
2017-08-08 19:30;7,45
2017-08-08 19:45;5,05
2017-08-08 20:00;5,3
2017-08-08 20:15;5,15
2017-08-08 20:30;2,2
2017-08-08 20:45;1
2017-08-08 21:00;0,5
2017-08-08 21:15;1,45
2017-08-08 21:30;3,45
2017-08-08 21:45;4,25
2017-08-08 22:00;5,45
2017-08-08 22:15;8,85
2017-08-08 22:30;8,7
2017-08-08 22:45;10,05
2017-08-08 23:00;12,9
2017-08-08 23:15;8,45
2017-08-08 23:30;8,9
2017-08-08 23:45;8,15
2017-08-09 00:00;9,25
2017-08-09 00:15;9,85
2017-08-09 00:30;11,7
2017-08-09 00:45;13,9
2017-08-09 01:00;14,95
2017-08-09 01:15;13,65
2017-08-09 01:30;15,25
2017-08-09 01:45;13,95
2017-08-09 02:00;14,9
2017-08-09 02:15;15,75
2017-08-09 02:30;17,8
2017-08-09 02:45;19,4
2017-08-09 03:00;17,9
2017-08-09 03:15;18,75
2017-08-09 03:30;18,85
2017-08-09 03:45;18,75
2017-08-09 04:00;8,1
2017-08-09 04:15;5,75
2017-08-09 04:30;6,55
2017-08-09 04:45;5,65
2017-08-09 05:00;7,7
2017-08-09 05:15;6,5
2017-08-09 05:30;7,5
2017-08-09 05:45;6,15
2017-08-09 06:00;6,9
2017-08-09 06:15;7,5
2017-08-09 06:30;6,55
2017-08-09 06:45;7,7
2017-08-09 07:00;5,9
2017-08-09 07:15;8,3
2017-08-09 07:30;7,55
2017-08-09 07:45;5,8
2017-08-09 08:00;4,3
2017-08-09 08:15;3,35
2017-08-09 08:30;4,55
2017-08-09 08:45;2,05
2017-08-09 09:00;3,55
2017-08-09 09:15;6,55
2017-08-09 09:30;5,4
2017-08-09 09:45;6,3
2017-08-09 10:00;6,25
2017-08-09 10:15;5,65
2017-08-09 10:30;5,7
2017-08-09 10:45;3,9
2017-08-09 11:00;6,2
2017-08-09 11:15;7,3
2017-08-09 11:30;8,6
2017-08-09 11:45;7,45
2017-08-09 12:00;13,85
2017-08-09 12:15;11,8
2017-08-09 12:30;12,7
2017-08-09 12:45;12,9
2017-08-09 13:00;13,65
2017-08-09 13:15;14,35
2017-08-09 13:30;13,6
2017-08-09 13:45;12,85
2017-08-09 14:00;13,15
2017-08-09 14:15;13,45
2017-08-09 14:30;13,65
2017-08-09 14:45;14,7
2017-08-09 15:00;11,7
2017-08-09 15:15;13,3
2017-08-09 15:30;17,6
2017-08-09 15:45;15,65
2017-08-09 16:00;10,85
2017-08-09 16:15;13,95
2017-08-09 16:30;13,85
2017-08-09 16:45;12,35
2017-08-09 17:00;13,45
2017-08-09 17:15;14
2017-08-09 17:30;13,6
2017-08-09 17:45;12,25
2017-08-09 18:00;12,9
2017-08-09 18:15;12,9
2017-08-09 18:30;13,65
2017-08-09 18:45;13,45
2017-08-09 19:00;12
2017-08-09 19:15;8,55
2017-08-09 19:30;8,45
2017-08-09 19:45;8,2
2017-08-09 20:00;9,15
2017-08-09 20:15;8,1
2017-08-09 20:30;6,9
2017-08-09 20:45;5,55
2017-08-09 21:00;3,05
2017-08-09 21:15;5,8
2017-08-09 21:30;6,4
2017-08-09 21:45;5,55
2017-08-09 22:00;7,75
2017-08-09 22:15;13,4
2017-08-09 22:30;12,95
2017-08-09 22:45;12,45
2017-08-09 23:00;12,9
2017-08-09 23:15;4,8
2017-08-09 23:30;7,5
2017-08-09 23:45;9,2
2017-08-10 00:00;8,6
2017-08-10 00:15;3,7
2017-08-10 00:30;2,8
2017-08-10 00:45;4,15
2017-08-10 01:00;4,3
2017-08-10 01:15;4,05
2017-08-10 01:30;5,3
2017-08-10 01:45;2,15
2017-08-10 02:00;1,45
2017-08-10 02:15;3,05
2017-08-10 02:30;2,75
2017-08-10 02:45;2,5
2017-08-10 03:00;2,75
2017-08-10 03:15;2,6
2017-08-10 03:30;3
2017-08-10 03:45;2,45
2017-08-10 04:00;2,5
2017-08-10 04:15;4,7
2017-08-10 04:30;3,9
2017-08-10 04:45;3,6
2017-08-10 05:00;3,2
2017-08-10 05:15;3
2017-08-10 05:30;3,9
2017-08-10 05:45;4,4
2017-08-10 06:00;3,7
2017-08-10 06:15;3,7
2017-08-10 06:30;5
2017-08-10 06:45;3,8
2017-08-10 07:00;3,3
2017-08-10 07:15;4,05
2017-08-10 07:30;5,4
2017-08-10 07:45;7,1
2017-08-10 08:00;6
2017-08-10 08:15;2,85
2017-08-10 08:30;2
2017-08-10 08:45;2,75
2017-08-10 09:00;2,05
2017-08-10 09:15;0,05
2017-08-10 09:30;2,75
2017-08-10 09:45;6,05
2017-08-10 10:00;7,85
2017-08-10 10:15;7,5
2017-08-10 10:30;8,6
2017-08-10 10:45;9,5
2017-08-10 11:00;10,65
2017-08-10 11:15;11,85
2017-08-10 11:30;11,2
2017-08-10 11:45;11,1
2017-08-10 12:00;12,45
2017-08-10 12:15;17,5
2017-08-10 12:30;21,15
2017-08-10 12:45;14,65
2017-08-10 13:00;15,65
2017-08-10 13:15;15,85
2017-08-10 13:30;17,45
2017-08-10 13:45;21,9
2017-08-10 14:00;20,35
2017-08-10 14:15;23,75
2017-08-10 14:30;22,75
2017-08-10 14:45;22,4
2017-08-10 15:00;22,55
2017-08-10 15:15;22,15
2017-08-10 15:30;20,35
2017-08-10 15:45;22,1
2017-08-10 16:00;22,55
2017-08-10 16:15;24,05
2017-08-10 16:30;21,5
2017-08-10 16:45;24,15
2017-08-10 17:00;22,55
2017-08-10 17:15;22,4
2017-08-10 17:30;22,9
2017-08-10 17:45;20,25
2017-08-10 18:00;19,95
2017-08-10 18:15;18,55
2017-08-10 18:30;17,35
2017-08-10 18:45;16,95
2017-08-10 19:00;17,35
2017-08-10 19:15;13,4
2017-08-10 19:30;16,25
2017-08-10 19:45;17,65
2017-08-10 20:00;16,1
2017-08-10 20:15;16,6
2017-08-10 20:30;16,25
2017-08-10 20:45;12,7
2017-08-10 21:00;13,95
2017-08-10 21:15;14,7
2017-08-10 21:30;15,2
2017-08-10 21:45;16,4
2017-08-10 22:00;13,4
2017-08-10 22:15;14,6
2017-08-10 22:30;15,85
2017-08-10 22:45;15,3
2017-08-10 23:00;11,85
2017-08-10 23:15;6
2017-08-10 23:30;7,65
2017-08-10 23:45;8,3
2017-08-11 00:00;7,65
2017-08-11 00:15;7,65
2017-08-11 00:30;8,3
2017-08-11 00:45;8,6
2017-08-11 01:00;9,9
2017-08-11 01:15;9,95
2017-08-11 01:30;11,95
2017-08-11 01:45;12,6
2017-08-11 02:00;13,05
2017-08-11 02:15;13,35
2017-08-11 02:30;15,45
2017-08-11 02:45;16,6
2017-08-11 03:00;17,35
2017-08-11 03:15;15,65
2017-08-11 03:30;16,05
2017-08-11 03:45;9,05
2017-08-11 04:00;4,85
2017-08-11 04:15;3,8
2017-08-11 04:30;5
2017-08-11 04:45;5,4
2017-08-11 05:00;10,85
2017-08-11 05:15;13,2
2017-08-11 05:30;11,95
2017-08-11 05:45;10,2
2017-08-11 06:00;10,85
2017-08-11 06:15;9,65
2017-08-11 06:30;9,65
2017-08-11 06:45;11,75
2017-08-11 07:00;9,95
2017-08-11 07:15;11,3
2017-08-11 07:30;11,15
2017-08-11 07:45;11,65
2017-08-11 08:00;8,9
2017-08-11 08:15;10,5
2017-08-11 08:30;8,6
2017-08-11 08:45;20,1
2017-08-11 09:00;20,6
2017-08-11 09:15;18,4
2017-08-11 09:30;15,5
2017-08-11 09:45;13,65
2017-08-11 10:00;15,8
2017-08-11 10:15;14,8
2017-08-11 10:30;15,85
2017-08-11 10:45;15
2017-08-11 11:00;17,7
2017-08-11 11:15;15,5
2017-08-11 11:30;18,3
2017-08-11 11:45;14,6
2017-08-11 12:00;15,3
2017-08-11 12:15;14,45
2017-08-11 12:30;15,25
2017-08-11 12:45;13,15
2017-08-11 13:00;14,85
2017-08-11 13:15;13,4
2017-08-11 13:30;13,35
2017-08-11 13:45;15,95
2017-08-11 14:00;13,55
2017-08-11 14:15;15,6
2017-08-11 14:30;15,95
2017-08-11 14:45;15,8
2017-08-11 15:00;16,7
2017-08-11 15:15;14,85
2017-08-11 15:30;16,15
2017-08-11 15:45;17,2
2017-08-11 16:00;15,35
2017-08-11 16:15;18,55
2017-08-11 16:30;15,1
2017-08-11 16:45;18,6
2017-08-11 17:00;17,6
2017-08-11 17:15;17,4
2017-08-11 17:30;17,95
2017-08-11 17:45;18,5
2017-08-11 18:00;18,65
2017-08-11 18:15;17,7
2017-08-11 18:30;18,25
2017-08-11 18:45;18,4
2017-08-11 19:00;17,85
2017-08-11 19:15;15,05
2017-08-11 19:30;15,1
2017-08-11 19:45;14,85
2017-08-11 20:00;16,15
2017-08-11 20:15;13,15
2017-08-11 20:30;15,4
2017-08-11 20:45;12
2017-08-11 21:00;12,4
2017-08-11 21:15;11,3
2017-08-11 21:30;9,3
2017-08-11 21:45;9,95
2017-08-11 22:00;10,7
2017-08-11 22:15;13,15
2017-08-11 22:30;13,25
2017-08-11 22:45;11,4
2017-08-11 23:00;7,75
2017-08-11 23:15;3,55
2017-08-11 23:30;4,85
2017-08-11 23:45;5,05
2017-08-12 00:00;6,35
2017-08-12 00:15;6,5
2017-08-12 00:30;7,4
2017-08-12 00:45;8,5
2017-08-12 01:00;5,85
2017-08-12 01:15;8,75
2017-08-12 01:30;7,35
2017-08-12 01:45;8,75
2017-08-12 02:00;8,5
2017-08-12 02:15;9,65
2017-08-12 02:30;8,6
2017-08-12 02:45;10,45
2017-08-12 03:00;9,7
2017-08-12 03:15;10,1
2017-08-12 03:30;9,5
2017-08-12 03:45;11,1
2017-08-12 04:00;10,6
2017-08-12 04:15;11,1
2017-08-12 04:30;8,4
2017-08-12 04:45;11,1
2017-08-12 05:00;10,15
2017-08-12 05:15;10,35
2017-08-12 05:30;10,6
2017-08-12 05:45;10,7
2017-08-12 06:00;10,55
2017-08-12 06:15;9,85
2017-08-12 06:30;9,9
2017-08-12 06:45;10,9
2017-08-12 07:00;12,6
2017-08-12 07:15;14,6
2017-08-12 07:30;12,7
2017-08-12 07:45;12,5
2017-08-12 08:00;11,05
2017-08-12 08:15;10,65
2017-08-12 08:30;12,8
2017-08-12 08:45;12,55
2017-08-12 09:00;14
2017-08-12 09:15;12,65
2017-08-12 09:30;12,6
2017-08-12 09:45;12
2017-08-12 10:00;11,6
2017-08-12 10:15;14,7
2017-08-12 10:30;12,6
2017-08-12 10:45;12,7
2017-08-12 11:00;10
2017-08-12 11:15;10,4
2017-08-12 11:30;9,55
2017-08-12 11:45;11
2017-08-12 12:00;11,05
2017-08-12 12:15;9,9
2017-08-12 12:30;9,15
2017-08-12 12:45;9,55
2017-08-12 13:00;8,3
2017-08-12 13:15;8,9
2017-08-12 13:30;9,35
2017-08-12 13:45;9,2
2017-08-12 14:00;12
2017-08-12 14:15;14,1
2017-08-12 14:30;14,05
2017-08-12 14:45;15,4
2017-08-12 15:00;14,95
2017-08-12 15:15;16,75
2017-08-12 15:30;16,05
2017-08-12 15:45;14,95
2017-08-12 16:00;17,35
2017-08-12 16:15;15,35
2017-08-12 16:30;17,65
2017-08-12 16:45;17,1
2017-08-12 17:00;19,2
2017-08-12 17:15;17,95
2017-08-12 17:30;18,75
2017-08-12 17:45;19,25
2017-08-12 18:00;20,05
2017-08-12 18:15;19,2
2017-08-12 18:30;19,05
2017-08-12 18:45;19,05
2017-08-12 19:00;18,55
2017-08-12 19:15;19,85
2017-08-12 19:30;19,45
2017-08-12 19:45;19,8
2017-08-12 20:00;16
2017-08-12 20:15;17,3
2017-08-12 20:30;16,4
2017-08-12 20:45;15,8
2017-08-12 21:00;14,45
2017-08-12 21:15;15,25
2017-08-12 21:30;16,5
2017-08-12 21:45;17,45
2017-08-12 22:00;18,9
2017-08-12 22:15;21,5
2017-08-12 22:30;15,9
2017-08-12 22:45;14,55
2017-08-12 23:00;11,3
2017-08-12 23:15;7,15
2017-08-12 23:30;7,65
2017-08-12 23:45;7,15
2017-08-13 00:00;7,95
2017-08-13 00:15;8,05
2017-08-13 00:30;8,05
2017-08-13 00:45;5,2
2017-08-13 01:00;5,05
2017-08-13 01:15;4,85
2017-08-13 01:30;4,7
2017-08-13 01:45;3,15
2017-08-13 02:00;2,05
2017-08-13 02:15;1,85
2017-08-13 02:30;2,45
2017-08-13 02:45;3,45
2017-08-13 03:00;3,1
2017-08-13 03:15;2,9
2017-08-13 03:30;2,7
2017-08-13 03:45;3,05
2017-08-13 04:00;4
2017-08-13 04:15;4,15
2017-08-13 04:30;4,45
2017-08-13 04:45;4,75
2017-08-13 05:00;4,15
2017-08-13 05:15;5,15
2017-08-13 05:30;4,95
2017-08-13 05:45;6
2017-08-13 06:00;4,45
2017-08-13 06:15;4,65
2017-08-13 06:30;4,6
2017-08-13 06:45;4,95
2017-08-13 07:00;4,45
2017-08-13 07:15;6,7
2017-08-13 07:30;10,4
2017-08-13 07:45;12,3
2017-08-13 08:00;11,9
2017-08-13 08:15;11,45
2017-08-13 08:30;10,75
2017-08-13 08:45;13,5
2017-08-13 09:00;14,25
2017-08-13 09:15;12,15
2017-08-13 09:30;13
2017-08-13 09:45;13,3
2017-08-13 10:00;13,05
2017-08-13 10:15;13,2
2017-08-13 10:30;11,15
2017-08-13 10:45;11,8
2017-08-13 11:00;12,4
2017-08-13 11:15;12,7
2017-08-13 11:30;10,4
2017-08-13 11:45;11,9
2017-08-13 12:00;10,65
2017-08-13 12:15;13,6
2017-08-13 12:30;11,75
2017-08-13 12:45;12,4
2017-08-13 13:00;10,6
2017-08-13 13:15;13,15
2017-08-13 13:30;11,45
2017-08-13 13:45;12,15
2017-08-13 14:00;16,4
2017-08-13 14:15;17,3
2017-08-13 14:30;17,8
2017-08-13 14:45;18,7
2017-08-13 15:00;20
2017-08-13 15:15;20,45
2017-08-13 15:30;19,4
2017-08-13 15:45;18,9
2017-08-13 16:00;19,7
2017-08-13 16:15;17,8
2017-08-13 16:30;19,5
2017-08-13 16:45;19,9
2017-08-13 17:00;21,35
2017-08-13 17:15;20,45
2017-08-13 17:30;20,4
2017-08-13 17:45;19,35
2017-08-13 18:00;18,7
2017-08-13 18:15;18,9
2017-08-13 18:30;19,35
2017-08-13 18:45;19,25
2017-08-13 19:00;15,85
2017-08-13 19:15;16,55
2017-08-13 19:30;16,65
2017-08-13 19:45;18,1
2017-08-13 20:00;16,25
2017-08-13 20:15;15,65
2017-08-13 20:30;16,25
2017-08-13 20:45;14,15
2017-08-13 21:00;13,85
2017-08-13 21:15;13,95
2017-08-13 21:30;14,2
2017-08-13 21:45;15,65
2017-08-13 22:00;12,35
2017-08-13 22:15;13,15
2017-08-13 22:30;12,7
2017-08-13 22:45;12,5
2017-08-13 23:00;8,55
2017-08-13 23:15;4,25
2017-08-13 23:30;4,75
2017-08-13 23:45;5,6

